Location: Mercogliano
(40.9167°N, 14.7333°E)
Time: 08:13:48
(UTC+00:00)

CZ-2C R/B - Pass Details

Date: 21 January 2021
Orbit: 785 x 870 km, 98.2° (Epoch: 08 March)

Event Time Altitude Azimuth Distance (km) Brightness Sun altitude
Exits shadow 19:08:01 35° 320° (NW) 1,360 4.0 -34.4°
Maximum altitude 19:09:15 40° 291° (WNW) 1,259 3.9 -34.6°
Drops below altitude 10° 19:14:24 10° 223° (SW) 2,508 5.5 -35.6°
Sets 19:16:55 0° 216° (SW) 3,444 6.2 -36.0°
